Volver al catálogo

ATLAS 5 CENTAUR DEB

LostHEO
NORAD 52039·DEBRIS·🇺🇸 United States

Lanzado Oct 17, 2018 desde Cape Canaveral Space Force Station

Loading…

Próximos Pases (próximas 24 horas)

TLE

ObsoletoSource: Space-Track

Época: Mar 26, 2023, 11:31 UTC

1 52039U 18079GH  23085.48042778 -.00000129  00000-0  00000+0 0  9994
2 52039  12.6090  81.3562 4550855 237.6264  70.2418  2.17886006  8554

Sigue ATLAS 5 CENTAUR DEB en tiempo real con AllMySat

Download on the App Store